GW5048 Weather Reports


Display with metric or nautical units.
time (UTC)temp
F
wind
direction
speed
MPH
gust
MPH
rain 1hr
in
rain 24hr
in
rain mn
in
humidity
%
barometer
mb
20260906111832 62 118 0.0 0.0 0.00 0.00 0.00 99 956.2
20260906111331 62 118 0.0 0.0 0.00 0.00 0.00 99 955.9
20260906110826 62 117 0.0 0.0 0.00 0.00 0.00 99 956.1
20260906110322 62 117 0.0 0.0 0.00 0.00 0.00 99 956.0
20260906105821 62 117 0.0 0.0 0.00 0.00 0.00 99 955.9
20260906105317 62 117 0.0 0.0 0.00 0.00 0.00 99 956.0
20260906104813 62 117 0.0 0.0 0.00 0.00 0.00 99 955.9
20260906104311 61 118 0.0 0.0 0.00 0.00 0.00 99 955.7
20260906103810 62 118 0.0 0.0 0.00 0.00 0.00 99 955.6
20260906103309 62 118 0.0 0.0 0.00 0.00 0.00 99 955.6
20260906102805 62 118 0.0 0.0 0.00 0.00 0.00 99 955.6
20260906102306 62 118 0.0 0.0 0.00 0.00 0.00 99 955.5
20260906101759 62 87 0.0 0.0 0.00 0.00 0.00 99 955.3
20260906101254 62 87 0.0 0.0 0.00 0.00 0.00 99 955.6
20260906100749 62 87 0.0 0.0 0.00 0.00 0.00 99 955.6
20260906100248 62 87 0.0 0.0 0.00 0.00 0.00 99 955.3
20260906095744 61 87 0.0 0.0 0.00 0.00 0.00 99 955.4
20260906095239 61 87 0.0 0.0 0.00 0.00 0.00 99 955.4
20260906094738 61 88 0.0 0.0 0.00 0.00 0.00 99 955.3
20260906094234 62 88 0.0 0.0 0.00 0.00 0.00 99 955.4
20260906093730 62 87 0.0 0.0 0.00 0.00 0.00 99 955.4
20260906093225 62 87 0.0 0.0 0.00 0.00 0.00 99 955.2
20260906092721 62 86 0.0 0.0 0.00 0.00 0.00 99 955.2
20260906092220 62 123 0.0 0.0 0.00 0.00 0.00 99 955.4
20260906091717 62 124 0.0 0.0 0.00 0.00 0.00 99 955.2
20260906091213 62 123 0.0 0.0 0.00 0.00 0.00 99 955.1
20260906090708 61 123 0.0 0.0 0.00 0.00 0.00 99 955.0
20260906090208 61 123 0.0 0.0 0.00 0.00 0.00 99 955.1
20260906085707 61 123 0.0 0.0 0.00 0.00 0.00 99 955.0
20260906085206 61 123 0.0 0.0 0.00 0.00 0.00 99 955.0
20260906084701 61 123 0.0 0.0 0.00 0.00 0.00 99 955.2
20260906084154 61 123 0.0 0.0 0.00 0.00 0.00 99 955.2
20260906083649 61 123 0.0 0.0 0.00 0.00 0.00 99 955.1
20260906083144 61 123 0.0 0.0 0.00 0.00 0.00 99 955.1
20260906082640 62 123 0.0 0.0 0.00 0.00 0.00 99 955.0
20260906082135 62 123 0.0 0.0 0.00 0.00 0.00 99 955.2
20260906081631 61 123 0.0 0.0 0.00 0.00 0.00 99 955.2
20260906081126 61 123 0.0 0.0 0.00 0.00 0.00 99 955.2
20260906080623 61 123 0.0 0.0 0.00 0.00 0.00 99 955.2
20260906080119 61 124 0.0 0.0 0.00 0.00 0.00 99 955.3
20260906075618 62 124 0.0 0.0 0.00 0.00 0.00 99 955.3
20260906075113 62 124 0.0 0.0 0.00 0.00 0.00 99 955.1
20260906074608 62 123 0.0 0.0 0.00 0.00 0.00 99 955.1
20260906074107 62 123 0.0 0.0 0.00 0.00 0.00 99 955.0
20260906073601 62 123 0.0 0.0 0.00 0.00 0.00 99 955.3
20260906073052 62 123 0.0 0.0 0.00 0.00 0.00 99 955.2
20260906072546 62 123 0.0 0.0 0.00 0.00 0.00 99 955.1
20260906072042 62 123 0.0 0.0 0.00 0.00 0.00 99 955.1
20260906071538 62 123 0.0 0.0 0.00 0.00 0.00 99 955.0
20260906071033 63 123 0.0 0.0 0.00 0.00 0.00 99 955.0
20260906070531 62 123 0.0 0.0 0.00 0.00 0.00 99 955.0
20260906070026 63 123 0.0 0.0 0.00 0.00 0.00 99 955.1
20260906065525 63 123 0.0 0.0 0.00 0.00 0.00 99 955.5
20260906065021 63 155 0.0 0.0 0.00 0.00 0.00 99 955.1
20260906064517 63 156 0.0 0.0 0.00 0.00 0.00 99 955.3
20260906064016 63 156 0.0 0.0 0.00 0.00 0.00 99 955.4
20260906063512 63 156 0.0 0.0 0.00 0.00 0.00 99 955.3
20260906063008 63 156 0.0 0.0 0.00 0.00 0.00 99 955.5
20260906062457 63 156 0.0 0.0 0.00 0.00 0.00 99 955.6
20260906061952 63 156 0.0 0.0 0.00 0.00 0.00 99 955.3
20260906061448 63 156 0.0 0.0 0.00 0.00 0.00 99 955.3
20260906060947 63 120 0.0 0.0 0.00 0.00 0.00 99 955.5
20260906060444 63 121 0.0 0.0 0.00 0.00 0.00 99 955.6
20260906055940 63 121 0.0 0.0 0.00 0.00 0.00 99 955.9
20260906055436 63 121 0.0 0.0 0.00 0.00 0.00 99 955.6
20260906054931 63 120 0.0 0.0 0.00 0.00 0.00 99 955.6
20260906054426 63 120 0.0 0.0 0.00 0.00 0.00 99 955.6
20260906053922 64 120 0.0 0.0 0.00 0.00 0.00 99 955.6
20260906053418 64 120 0.0 0.0 0.00 0.00 0.00 99 955.7
20260906052913 64 120 0.0 0.0 0.00 0.00 0.00 99 955.7
20260906052409 64 119 0.0 0.0 0.00 0.00 0.00 99 955.8
20260906051906 64 69 0.0 0.0 0.00 0.00 0.00 99 955.6
20260906051406 64 69 0.0 0.0 0.00 0.00 0.00 99 955.6
20260906050902 64 85 0.0 0.0 0.00 0.00 0.00 99 955.7
20260906050356 64 119 0.0 0.0 0.00 0.00 0.00 99 955.7
20260906045856 64 121 0.0 0.0 0.00 0.00 0.00 99 955.7
20260906045355 64 121 0.0 0.0 0.00 0.00 0.00 99 955.9
20260906044852 64 121 0.0 0.0 0.00 0.00 0.00 99 955.7
20260906044351 64 61 0.0 0.0 0.00 0.00 0.00 99 955.8
20260906043847 64 61 0.0 0.0 0.00 0.00 0.00 99 955.5
20260906043344 64 61 0.0 0.0 0.00 0.00 0.00 99 955.6
20260906042844 65 121 0.0 0.0 0.00 0.00 0.00 99 955.7
20260906042342 65 120 0.0 0.0 0.00 0.00 0.00 99 955.5
20260906041838 65 112 0.0 0.0 0.00 0.00 0.00 99 955.6
20260906041334 65 157 0.0 0.0 0.00 0.00 0.00 99 955.6
20260906040834 65 156 0.0 0.0 0.00 0.00 0.00 99 955.8
20260906040329 65 184 0.0 0.0 0.00 0.00 0.00 99 955.9
20260906035824 64 184 0.0 0.0 0.00 0.07 0.07 99 956.0
20260906035319 65 184 0.0 0.0 0.00 0.07 0.07 99 956.1
20260906034815 65 185 0.0 0.0 0.00 0.07 0.07 99 956.0
20260906034315 65 83 0.0 0.0 0.00 0.07 0.07 99 956.1
20260906033811 65 83 0.0 0.0 0.00 0.07 0.07 99 956.4
20260906033309 65 83 0.0 0.0 0.00 0.07 0.07 99 956.2
20260906032806 65 83 0.0 0.0 0.00 0.07 0.07 99 956.5
20260906032305 65 82 0.0 0.0 0.00 0.07 0.07 99 956.7
20260906031757 65 82 0.0 0.0 0.00 0.07 0.07 99 956.6
20260906031253 65 82 0.0 0.0 0.00 0.07 0.07 99 956.6
20260906030752 65 82 0.0 0.0 0.00 0.07 0.07 99 956.6
20260906030248 65 125 0.0 0.0 0.00 0.07 0.07 99 956.6
20260906025747 65 126 0.0 0.0 0.00 0.07 0.07 99 956.5
20260906025241 65 125 0.0 0.0 0.00 0.07 0.07 99 956.4
20260906024740 65 125 0.0 0.0 0.00 0.07 0.07 99 956.4
20260906024239 65 125 0.0 0.0 0.00 0.07 0.07 99 956.5
20260906023735 65 125 0.0 0.0 0.00 0.07 0.07 99 956.0
20260906023230 65 125 0.0 0.0 0.00 0.07 0.07 99 956.4
20260906022726 65 125 0.0 0.0 0.00 0.07 0.07 99 956.4
20260906022221 66 125 0.0 0.0 0.00 0.07 0.07 99 956.2
20260906021717 66 126 0.0 0.0 0.00 0.07 0.07 99 956.1
20260906021215 66 126 0.0 0.0 0.00 0.07 0.07 99 956.2
20260906020711 66 126 0.0 0.0 0.00 0.07 0.07 99 956.0
20260906020206 66 125 0.0 0.0 0.00 0.07 0.07 99 956.1
20260906015706 66 125 0.0 0.0 0.00 0.07 0.07 99 956.2
20260906015204 66 125 0.0 0.0 0.00 0.07 0.07 99 956.2
20260906014658 66 125 0.0 0.0 0.00 0.07 0.07 99 956.1
20260906014154 66 125 0.0 0.0 0.00 0.07 0.07 99 956.1
20260906013650 66 126 0.0 0.0 0.00 0.07 0.07 99 956.1
20260906013145 67 126 0.0 0.0 0.00 0.07 0.07 99 955.9
20260906012645 67 126 0.0 0.0 0.00 0.07 0.07 99 955.7
20260906012139 67 126 0.0 0.0 0.00 0.07 0.07 99 955.7
20260906011635 67 126 0.0 0.0 0.00 0.07 0.07 99 955.5
20260906011130 67 126 0.0 0.0 0.00 0.07 0.07 99 955.5
20260906010625 67 126 0.0 0.0 0.00 0.07 0.07 99 955.5
20260906010122 68 126 0.0 0.0 0.00 0.07 0.07 99 955.4
20260906005621 68 252 0.0 0.0 0.00 0.07 0.07 98 955.5
20260906005120 68 252 0.0 0.0 0.00 0.07 0.07 98 955.3
20260906004619 68 252 0.0 0.0 0.00 0.07 0.07 98 955.4
20260906004114 68 252 0.0 0.0 0.00 0.07 0.07 98 955.4
20260906003610 68 252 0.0 0.0 0.00 0.07 0.07 98 955.3
20260906003106 68 252 0.0 0.0 0.00 0.07 0.07 97 955.5
20260906002600 69 252 0.0 0.0 0.00 0.07 0.07 96 955.3
20260906002055 69 252 0.0 0.0 0.00 0.07 0.07 96 955.5
20260906001551 69 252 0.0 0.0 0.00 0.07 0.07 95 955.4
20260906001051 70 252 0.0 0.0 0.00 0.07 0.07 94 955.4
20260906000547 70 252 0.0 0.0 0.00 0.07 0.07 93 955.5
20260906000042 71 253 0.0 0.0 0.00 0.07 0.07 93 955.4
20260905235541 71 253 0.0 0.0 0.00 0.07 0.07 92 955.3
20260905235036 71 253 0.0 0.0 0.00 0.07 0.07 91 955.2
20260905234532 72 253 0.0 0.0 0.00 0.07 0.07 89 955.3
20260905234026 72 253 0.0 0.0 0.00 0.07 0.07 88 955.4
20260905233521 72 253 0.0 0.0 0.00 0.07 0.07 88 955.4
20260905233021 73 253 0.0 0.0 0.00 0.07 0.07 88 955.4
20260905232516 73 253 0.0 0.0 0.00 0.07 0.07 87 955.6
20260905232012 74 253 0.0 0.0 0.00 0.07 0.07 85 955.6
20260905231507 74 253 0.0 0.0 0.00 0.07 0.07 83 955.6
20260905231003 74 248 0.0 1.0 0.00 0.07 0.07 82 955.4
20260905230502 75 256 0.0 1.0 0.00 0.07 0.07 81 955.7
20260905230000 75 257 1.0 1.0 0.00 0.07 0.07 80 955.6
20260905225455 76 336 0.0 1.0 0.00 0.07 0.07 79 955.6
20260905224951 77 301 0.0 1.0 0.00 0.07 0.07 77 955.6
20260905224446 77 134 1.0 2.0 0.00 0.07 0.07 77 955.5
20260905223945 78 57 1.0 2.0 0.00 0.07 0.07 78 955.7
20260905223443 78 276 4.0 7.0 0.00 0.07 0.07 74 955.5
20260905222938 79 319 0.0 1.0 0.00 0.07 0.07 74 955.5
20260905222437 80 310 0.0 0.0 0.00 0.07 0.07 73 955.4
20260905221933 80 220 0.0 3.0 0.00 0.07 0.07 73 955.5
20260905221429 79 2 0.0 2.0 0.00 0.07 0.07 72 955.4
20260905220926 78 37 2.0 3.0 0.00 0.07 0.07 73 955.0
20260905220421 78 17 4.0 4.0 0.00 0.07 0.07 72 955.1
20260905215920 78 31 5.0 6.0 0.00 0.07 0.07 72 955.1
20260905215416 79 142 0.0 4.0 0.00 0.07 0.07 71 955.2
20260905214912 79 263 0.0 2.0 0.00 0.07 0.07 71 954.8
20260905214408 80 201 4.0 6.0 0.00 0.07 0.07 70 954.9
20260905213908 80 57 1.0 2.0 0.00 0.07 0.07 68 954.7
20260905213404 81 234 1.0 1.0 0.00 0.07 0.07 69 955.0
20260905212859 80 334 1.0 2.0 0.00 0.07 0.07 70 954.8
20260905212354 80 334 1.0 2.0 0.00 0.07 0.07 70 954.9
20260905211853 79 331 1.0 2.0 0.00 0.07 0.07 70 955.0
20260905211349 80 212 0.0 4.0 0.00 0.07 0.07 69 955.0
20260905210845 80 340 0.0 3.0 0.00 0.07 0.07 68 954.7
20260905210345 80 336 0.0 6.0 0.00 0.07 0.07 71 954.4
20260905205839 82 346 2.0 4.0 0.00 0.07 0.07 69 954.7
20260905205339 83 351 0.0 0.0 0.00 0.07 0.07 70 954.5
20260905204838 82 247 0.0 2.0 0.00 0.07 0.07 69 954.7
20260905204335 81 308 1.0 3.0 0.00 0.07 0.07 70 954.8
20260905203833 82 29 3.0 4.0 0.00 0.07 0.07 69 954.8
20260905203329 81 250 3.0 4.0 0.00 0.07 0.07 69 954.6
20260905202824 81 232 1.0 3.0 0.00 0.07 0.07 70 954.7
20260905202314 81 204 1.0 3.0 0.00 0.07 0.07 69 954.5
20260905201809 82 334 0.0 2.0 0.00 0.07 0.07 69 954.6
20260905201304 81 238 3.0 3.0 0.00 0.07 0.07 69 954.5
20260905200759 81 254 1.0 2.0 0.00 0.07 0.07 71 954.7
20260905200255 81 11 2.0 4.0 0.00 0.07 0.07 68 954.8
20260905195752 82 196 0.0 2.0 0.00 0.07 0.07 71 954.7
20260905195247 81 252 0.0 3.0 0.00 0.07 0.07 71 954.9
20260905194743 82 249 2.0 3.0 0.00 0.07 0.07 69 954.7
20260905194242 82 203 0.0 2.0 0.00 0.07 0.07 67 955.0
20260905193742 82 44 1.0 3.0 0.00 0.07 0.07 68 955.1
20260905193237 81 278 2.0 4.0 0.00 0.07 0.07 72 955.2
20260905192733 82 340 0.0 2.0 0.00 0.07 0.07 72 955.2
20260905192230 81 268 0.0 3.0 0.00 0.07 0.07 70 955.4
20260905191728 80 224 2.0 3.0 0.00 0.07 0.07 70 955.4
20260905191226 80 229 2.0 3.0 0.00 0.07 0.07 70 955.4
20260905190725 81 6 2.0 3.0 0.00 0.07 0.07 70 955.4
20260905190224 80 198 1.0 3.0 0.00 0.07 0.07 70 955.7
20260905185723 80 342 2.0 3.0 0.00 0.07 0.07 70 955.7
20260905185218 79 338 2.0 3.0 0.00 0.07 0.07 71 955.8
20260905184713 79 322 2.0 2.0 0.00 0.07 0.07 71 955.9
20260905184212 80 246 2.0 7.0 0.00 0.07 0.07 72 955.8
20260905183711 79 318 0.0 3.0 0.00 0.07 0.07 75 955.9
20260905183207 78 61 0.0 0.0 0.00 0.07 0.07 79 956.0
20260905182706 78 358 0.0 1.0 0.00 0.07 0.07 76 956.0
20260905182206 79 227 0.0 0.0 0.00 0.07 0.07 72 955.9
20260905181702 79 345 2.0 3.0 0.00 0.07 0.07 75 956.0
20260905181200 78 102 2.0 3.0 0.00 0.07 0.07 74 956.2
20260905180655 78 245 0.0 2.0 0.00 0.07 0.07 80 956.2
20260905180151 78 242 0.0 2.0 0.00 0.07 0.07 80 956.4
20260905175649 79 296 2.0 3.0 0.00 0.07 0.07 79 956.2
20260905175145 78 239 1.0 3.0 0.00 0.07 0.07 81 956.6
20260905174641 77 237 2.0 2.0 0.00 0.07 0.07 84 956.4
20260905174136 77 259 1.0 2.0 0.00 0.07 0.07 85 956.5
20260905173632 77 234 4.0 6.0 0.00 0.07 0.07 81 956.7
20260905173128 76 252 1.0 3.0 0.00 0.07 0.07 81 956.9
20260905172626 75 149 0.0 3.0 0.00 0.07 0.07 84 956.8
20260905172121 74 235 0.0 2.0 0.00 0.07 0.07 87 957.1
20260905171618 74 250 0.0 0.0 0.00 0.07 0.07 87 957.0
20260905171113 74 235 0.0 0.0 0.00 0.07 0.07 89 957.1
20260905170604 73 228 0.0 0.0 0.00 0.07 0.07 90 957.0
20260905170059 73 212 0.0 0.0 0.00 0.07 0.07 89 956.9
20260905165559 73 243 2.0 2.0 0.00 0.07 0.07 89 957.1
20260905165054 73 213 2.0 2.0 0.00 0.07 0.07 92 957.0
20260905164550 73 168 0.0 3.0 0.00 0.07 0.07 88 956.9
20260905164049 73 267 0.0 0.0 0.00 0.07 0.07 89 957.1
20260905163546 72 212 0.0 1.0 0.00 0.07 0.07 92 957.1
20260905163042 72 293 0.0 3.0 0.00 0.07 0.07 92 956.8
20260905162538 71 214 1.0 2.0 0.00 0.07 0.07 93 956.8
20260905162032 70 251 0.0 0.0 0.00 0.07 0.07 95 956.9
20260905161531 69 174 1.0 4.0 0.00 0.07 0.07 95 956.4
20260905161029 70 182 1.0 3.0 0.00 0.07 0.07 96 956.4
20260905160528 69 159 1.0 3.0 0.00 0.07 0.07 96 956.5
20260905160023 69 162 2.0 2.0 0.00 0.07 0.07 97 956.7
20260905155523 69 208 0.0 2.0 0.00 0.07 0.07 97 956.9
20260905155021 69 189 2.0 2.0 0.00 0.07 0.07 97 956.9
20260905154517 69 207 2.0 3.0 0.00 0.07 0.07 96 957.0
20260905154012 70 192 1.0 6.0 0.00 0.07 0.07 96 956.8
20260905153508 70 166 1.0 2.0 0.00 0.07 0.07 95 957.2
20260905153008 70 232 0.0 0.0 0.00 0.07 0.07 95 957.4
20260905152508 69 175 0.0 0.0 0.00 0.07 0.07 97 958.0
20260905152003 69 175 0.0 0.0 0.00 0.07 0.07 97 957.9
20260905151458 69 208 0.0 0.0 0.00 0.07 0.07 96 958.0
20260905150953 69 178 0.0 0.0 0.00 0.07 0.07 98 958.1
20260905150448 68 178 0.0 0.0 0.00 0.07 0.07 97 958.3
20260905145944 68 231 0.0 0.0 0.00 0.07 0.07 99 958.4
20260905145439 68 232 0.0 0.0 0.00 0.07 0.07 99 958.3
20260905144939 67 232 0.0 0.0 0.00 0.07 0.07 99 958.4
20260905144434 67 222 0.0 0.0 0.00 0.07 0.07 99 958.2
20260905143932 67 222 0.0 0.0 0.00 0.07 0.07 99 957.9
20260905143426 67 223 0.0 0.0 0.00 0.07 0.07 99 958.1
20260905142921 67 200 0.0 0.0 0.00 0.07 0.07 99 957.8
20260905142420 66 124 0.0 0.0 0.00 0.07 0.07 99 957.8
20260905141916 66 124 0.0 0.0 0.00 0.07 0.07 99 957.9
20260905141411 65 124 0.0 0.0 0.07 0.07 0.07 99 957.9
20260905140907 65 124 0.0 3.0 0.07 0.07 0.07 99 958.1
20260905140402 65 188 0.0 2.0 0.00 0.06 0.06 99 958.3
20260905135900 65 168 0.0 0.0 0.00 0.06 0.06 99 958.3
20260905135356 65 232 2.0 3.0 0.00 0.06 0.06 99 958.3
20260905134851 65 356 0.0 1.0 0.00 0.06 0.06 99 958.5
20260905134350 65 112 2.0 2.0 0.12 0.06 0.06 99 958.1
20260905133844 65 95 3.0 6.0 0.35 0.06 0.06 99 958.1
20260905133339 65 347 3.0 8.0 0.12 0.02 0.02 99 958.6
20260905132838 66 325 0.0 7.0 0.00 0.00 0.00 99 958.2
20260905132334 67 306 2.0 8.0 0.00 0.00 0.00 99 957.8
20260905131828 67 256 0.0 0.0 0.00 0.00 0.00 99 957.5
20260905131324 67 235 0.0 0.0 0.00 0.00 0.00 99 956.7
20260905130819 67 234 0.0 0.0 0.00 0.00 0.00 99 956.9
20260905130317 67 235 0.0 0.0 0.00 0.00 0.00 99 956.8
20260905125813 67 235 0.0 0.0 0.00 0.00 0.00 99 956.8
20260905125308 67 235 0.0 0.0 0.00 0.00 0.00 99 957.0
20260905124804 67 235 0.0 0.0 0.00 0.00 0.00 99 956.8
20260905124300 66 235 0.0 0.0 0.00 0.00 0.00 99 956.6
20260905123755 66 235 0.0 0.0 0.00 0.00 0.00 99 956.7
20260905123253 66 235 0.0 0.0 0.00 0.00 0.00 99 956.7
20260905122752 66 235 0.0 0.0 0.00 0.00 0.00 99 956.9
20260905122251 65 235 0.0 0.0 0.00 0.00 0.00 99 957.0
20260905121746 65 234 0.0 0.0 0.00 0.00 0.00 99 957.0
20260905121243 65 235 0.0 0.0 0.00 0.00 0.00 99 956.8
20260905120741 64 235 0.0 0.0 0.00 0.00 0.00 99 956.7
20260905120236 64 235 0.0 0.0 0.00 0.00 0.00 99 956.7
20260905115732 64 235 0.0 0.0 0.00 0.00 0.00 99 956.8
20260905115231 64 235 0.0 0.0 0.00 0.00 0.00 99 956.8
20260905114726 64 235 0.0 0.0 0.00 0.00 0.00 99 957.0
20260905114225 63 234 0.0 0.0 0.00 0.00 0.00 99 956.8
20260905113724 63 234 0.0 0.0 0.00 0.00 0.00 99 956.6
20260905113220 63 234 0.0 0.0 0.00 0.00 0.00 99 956.7
20260905112720 63 234 0.0 0.0 0.00 0.00 0.00 99 956.8